GSAT-19

Last updated on Tue Sep 16 2025 00:02:49 GMT+0000 (Coordinated Universal Time)

1 42747U 17031A 25258.59410933 .00000108 00000+0 00000+0 0 9999 2 42747 0.0355 255.5258 0004317 254.0049 107.0171 1.00272413 30392
UTC large
Height (km)
Speed (km/s)
/
Latitude / Longitude
Inclination (degrees)
Orbital Period (minutes)
Azimuth
Elevation
Range (km)
Doppler Factor

Next 0 passes for location: London (51.5072 / 0.1276)

Sorry there are no passes over London.